Home   Weather   Eskilstuna   Past weeks

Flag for Sweden Past Weather in Eskilstuna, Sweden — Yesterday and Last 2 Weeks

Now
28 °F

Sunny.


Feels Like: 22 °F
Forecast: 23 / 35 °F
Wind: 6 mph from North

Location: Vasteras / Hasslo

Current Time: Dec 3, 2016 at 2:41:07 pm

Latest Report: Dec 3, 2016 at 1:50 pm


Visibility: 10 mi

Pressure: 30.12 "Hg

Humidity: 80%

Dew Point: 23 °F

Location of EskilstunaLocation

Past Weather in Eskilstuna — Graph

°F

Eskilstuna Temperature Yesterday

Maximum temperature yesterday: 36 °F (at 8:50 am)
Minimum temperature yesterday: 27 °F (at 10:20 pm)
Average temperature yesterday: 31 °F

High & Low Weather Summary for the Past Weeks

 TemperatureHumidityPressure
High48 °F (Nov 21, 2:20 pm)100% (Nov 20, 2:20 am)30.27 "Hg (Nov 20, 2:20 am)
Low21 °F (Dec 1, 7:20 pm)41% (Nov 27, 3:20 pm)29.18 "Hg (Nov 18, 2:20 pm)
Average37 °F78%29.80 "Hg
* Reported Nov 18 1:20 pm — Dec 3 1:20 pm, Eskilstuna, Weather by CustomWeather, © 2016

Note: Actual official high and low records may vary slightly from our data, if they occured in-between our weather recording intervals... More about our weather records

Advertising

Eskilstuna Weather History for the Previous 24 Hours

Scroll right to see more
 ConditionsComfort  
Time TempWeatherWind HumidityBarometerVisibility
1:20 pm
Sat, Dec 3
28 °FPassing clouds.6 mph80%30.12 "HgN/A
12:50 pm30 °FScattered clouds.7 mph80%30.12 "HgN/A
12:20 pm30 °FPartly sunny.7 mph80%30.12 "HgN/A
11:50 am30 °FPassing clouds.7 mph80%30.12 "HgN/A
11:20 am30 °FChilly.7 mph80%30.09 "HgN/A
10:50 am28 °FChilly.5 mph80%30.09 "HgN/A
10:20 am25 °FCold.No wind86%30.09 "HgN/A
9:50 am25 °FCold.1 mph86%30.07 "HgN/A
9:20 am23 °FPassing clouds.2 mph93%30.07 "HgN/A
8:50 am25 °FOvercast.1 mph86%30.07 "HgN/A
8:20 am23 °FOvercast.1 mph86%30.04 "HgN/A
7:50 am23 °FPassing clouds.1 mph86%30.04 "HgN/A
7:20 am25 °FOvercast.3 mph80%30.04 "HgN/A
6:50 am25 °FPassing clouds.6 mph86%30.04 "HgN/A
6:20 am23 °FPassing clouds.5 mph86%30.04 "HgN/A
5:50 am23 °FCold.5 mph86%30.01 "HgN/A
5:20 am25 °FCold.5 mph86%30.01 "HgN/A
4:50 am27 °FChilly.5 mph80%30.01 "HgN/A
4:20 am25 °FCold.7 mph86%30.01 "HgN/A
3:50 am25 °FCold.3 mph80%30.04 "HgN/A
3:20 am25 °FCold.5 mph80%30.01 "HgN/A
2:50 am27 °FPassing clouds.5 mph80%30.04 "HgN/A
2:20 am27 °FPassing clouds.3 mph74%30.04 "HgN/A
1:50 am27 °FOvercast.5 mph74%30.04 "HgN/A
1:20 am27 °FPassing clouds.7 mph74%30.04 "HgN/A
12:50 am27 °FPassing clouds.6 mph80%30.04 "HgN/A
12:20 am27 °FOvercast.6 mph80%30.04 "HgN/A
11:50 pm
Fri, Dec 2
27 °FPassing clouds.3 mph80%30.04 "HgN/A
11:20 pm27 °FChilly.3 mph80%30.04 "HgN/A
10:50 pm27 °FChilly.5 mph80%30.04 "HgN/A
10:20 pm27 °FChilly.5 mph74%30.04 "HgN/A
9:50 pm28 °FChilly.6 mph69%30.04 "HgN/A
9:20 pm28 °FChilly.7 mph69%30.04 "HgN/A
8:50 pm30 °FChilly.9 mph69%30.04 "HgN/A
8:20 pm30 °FChilly.10 mph69%30.04 "HgN/A
7:50 pm30 °FChilly.10 mph69%30.04 "HgN/A
7:20 pm30 °FChilly.12 mph69%30.04 "HgN/A
6:50 pm30 °FChilly.10 mph69%30.01 "HgN/A
6:20 pm30 °FChilly.9 mph75%30.01 "HgN/A
5:50 pm30 °FClear.7 mph75%30.01 "Hg10 mi
5:20 pm30 °FClear.8 mph75%30.01 "Hg10 mi
4:50 pm30 °FClear.8 mph75%29.98 "Hg10 mi
4:20 pm32 °FClear.9 mph75%29.98 "Hg10 mi
3:50 pm32 °FClear.12 mph75%29.98 "Hg10 mi
3:20 pm34 °FPassing clouds.12 mph70%29.95 "HgN/A
2:50 pm34 °FPartly sunny.10 mph75%29.95 "HgN/A
2:20 pm34 °FBroken clouds.14 mph70%29.92 "HgN/A
Weather by CustomWeather, © 2016

See weather overviewHow to use our weather pages